Weather History for KBAF - January, 2013

Change the Weather History Date:

Tuesday, January 1, 2013

  Actual Average Record
Temperature  
Mean Temperature 28 °F -  
Max Temperature 37 °F 34 °F 51 °F (2012)
Min Temperature 19 °F 19 °F -4 °F (1997)
Degree Days  
Heating Degree Days 37    
Moisture  
Dew Point 14 °F    
Average Humidity 53    
Maximum Humidity 66    
Minimum Humidity 43    
Precipitation  
Precipitation 0.08 in - - ()
Sea Level Pressure  
Sea Level Pressure 29.86 in    
Wind  
Wind Speed 12 mph (WNW)    
Max Wind Speed 24 mph    
Max Gust Speed 33 mph    
Visibility 10 miles    
Events      
Averages and records for this station are not official NWS values.
T = Trace of Precipitation, MM = Missing Value Source: NWS Daily Summary

Daily Weather History Graph

Daily Weather History Graph

Search for Another Location

Airport or City:

Trip Planner

Search our weather history database for the weather conditions in past years. The results will help you decide how hot, cold, wet, or windy it might be!

Date:

Astronomy

Jan. 01, 2013 Rise Set
Actual Time 7:19 AM EST 4:29 PM EST
Civil Twilight 6:47 AM EST 5:01 PM EST
Nautical Twilight 6:12 AM EST 5:36 PM EST
Astronomical Twilight 5:38 AM EST 6:10 PM EST
Moon 9:03 PM EST (1/1) 9:25 AM EST (1/1)
Length of Visible Light 10h 13m
Length of Day
9h 10m
Waning Gibbous, 83% of the Moon is Illuminated
Jan 1
Waning Gibbous
Jan 4
Last Quarter
Jan 11
New
Jan 18
First Quarter
Jan 26
Full

Hourly Weather History & Observations

Time (EST) Temp. Windchill Dew Point Humidity Pressure Visibility Wind Dir Wind Speed Gust Speed Precip Events Conditions
12:53 AM 34.0 °F 26.6 °F 21.0 °F 59% 29.78 in 10.0 mi South 9.2 mph - 0.01 in   Overcast
1:53 AM 34.0 °F 27.2 °F 21.9 °F 61% 29.80 in 10.0 mi SSW 8.1 mph - N/A   Overcast
2:53 AM 34.0 °F 26.6 °F 21.9 °F 61% 29.78 in 10.0 mi SSW 9.2 mph - N/A   Overcast
3:53 AM 32.0 °F 24.2 °F 21.9 °F 66% 29.76 in 10.0 mi SSW 9.2 mph - N/A   Overcast
4:53 AM 35.1 °F 27.9 °F 21.9 °F 59% 29.78 in 10.0 mi SW 9.2 mph - N/A   Overcast
5:53 AM 37.0 °F 30.4 °F 21.0 °F 52% 29.78 in 10.0 mi West 9.2 mph - 0.01 in   Overcast
6:53 AM 37.0 °F 31.0 °F 23.0 °F 57% 29.81 in 10.0 mi WNW 8.1 mph - 0.02 in   Overcast
7:53 AM 35.1 °F 24.5 °F 21.0 °F 57% 29.82 in 10.0 mi WNW 18.4 mph 25.3 mph 0.01 in   Overcast
8:53 AM 34.0 °F 23.4 °F 19.0 °F 54% 29.83 in 10.0 mi NW 17.3 mph 27.6 mph 0.01 in   Scattered Clouds
9:53 AM 35.1 °F 26.9 °F 17.1 °F 48% 29.86 in 10.0 mi NW 11.5 mph 21.9 mph 0.01 in   Overcast
10:53 AM 34.0 °F 24.6 °F 16.0 °F 48% 29.86 in 10.0 mi NW 13.8 mph 19.6 mph N/A   Overcast
11:53 AM 33.1 °F 24.4 °F 16.0 °F 50% 29.84 in 10.0 mi NW 11.5 mph 25.3 mph 0.01 in   Mostly Cloudy
12:53 PM 34.0 °F 23.4 °F 14.0 °F 44% 29.83 in 10.0 mi WNW 17.3 mph 27.6 mph N/A   Mostly Cloudy
1:53 PM 30.9 °F 17.5 °F 14.0 °F 50% 29.83 in 10.0 mi NW 24.2 mph 33.4 mph N/A   Scattered Clouds
1:55 PM 30.2 °F 16.5 °F 14.0 °F 51% 29.81 in 10.0 mi WNW 24.2 mph 33.4 mph N/A   Mostly Cloudy
2:53 PM 30.0 °F 18.7 °F 10.0 °F 43% 29.84 in 10.0 mi NW 16.1 mph 32.2 mph 0.00 in   Scattered Clouds
3:53 PM 28.9 °F 16.9 °F 10.0 °F 45% 29.86 in 10.0 mi NW 17.3 mph 27.6 mph N/A   Scattered Clouds
4:53 PM 28.0 °F 20.8 °F 10.9 °F 49% 29.88 in 10.0 mi NNW 6.9 mph - N/A   Scattered Clouds
5:53 PM 27.0 °F 16.1 °F 10.0 °F 49% 29.91 in 10.0 mi NW 12.7 mph 20.7 mph N/A   Partly Cloudy
6:53 PM 25.0 °F 11.7 °F 8.1 °F 49% 29.93 in 10.0 mi NW 17.3 mph 23.0 mph N/A   Clear
7:53 PM 23.0 °F 11.7 °F 7.0 °F 50% 29.96 in 10.0 mi West 11.5 mph - N/A   Clear
8:53 PM 21.9 °F 9.8 °F 6.1 °F 51% 29.95 in 10.0 mi NW 12.7 mph - N/A   Clear
9:53 PM 19.9 °F 7.9 °F 6.1 °F 55% 29.96 in 10.0 mi NW 11.5 mph - N/A   Clear
10:53 PM 19.9 °F 9.3 °F 5.0 °F 52% 29.98 in 10.0 mi NNW 9.2 mph 18.4 mph N/A   Clear
11:53 PM 19.0 °F 9.0 °F 5.0 °F 54% 29.98 in 10.0 mi NW 8.1 mph - N/A   Clear